TimeAKDT,TemperatureF,Dew PointF,Humidity,Sea Level PressureIn,VisibilityMPH,Wind Direction,Wind SpeedMPH,Gust SpeedMPH,PrecipitationIn,Events,Conditions,WindDirDegrees,DateUTC
12:55 AM,34.9,33.4,94,29.98,10.0,WNW,1.2,-,N/A,,Partly Cloudy,300,2012-10-06 08:55:00
1:55 AM,36.3,34.3,93,29.98,10.0,SSW,1.2,-,N/A,,Clear,210,2012-10-06 09:55:00
2:55 AM,36.1,34.0,92,29.97,10.0,Variable,2.3,-,N/A,,Mostly Cloudy,0,2012-10-06 10:55:00
3:55 AM,38.7,34.0,83,29.96,10.0,West,1.2,-,N/A,,Overcast,280,2012-10-06 11:55:00
4:55 AM,36.5,33.6,89,29.96,10.0,Variable,2.3,-,N/A,,Mostly Cloudy,0,2012-10-06 12:55:00
5:55 AM,35.2,33.3,92,29.97,10.0,West,1.2,-,N/A,,Mostly Cloudy,280,2012-10-06 13:55:00
6:20 AM,35.6,33.8,93,29.97,10.0,South,2.3,-,N/A,Rain,Light Rain,190,2012-10-06 14:20:00
6:55 AM,37.0,34.0,89,29.99,7.0,South,3.5,-,0.02,Rain,Rain,190,2012-10-06 14:55:00
7:55 AM,37.4,34.3,89,30.00,10.0,Variable,2.3,-,0.00,Rain,Light Rain Showers,0,2012-10-06 15:55:00
8:55 AM,37.6,34.9,90,30.01,10.0,Variable,3.5,-,0.02,Rain,Light Rain,0,2012-10-06 16:55:00
9:55 AM,38.1,35.1,89,30.03,10.0,WNW,2.3,-,0.00,Rain,Light Rain,290,2012-10-06 17:55:00
10:55 AM,38.1,34.9,88,30.06,10.0,Variable,3.5,-,0.00,Rain,Light Rain Showers,0,2012-10-06 18:55:00
11:55 AM,38.3,35.2,89,30.09,10.0,Variable,1.2,-,0.02,Rain,Light Rain,0,2012-10-06 19:55:00
12:20 PM,39.2,35.6,87,30.09,10.0,Variable,3.5,-,N/A,Rain,Light Rain,0,2012-10-06 20:20:00
12:55 PM,39.0,34.9,85,30.10,10.0,Variable,4.6,-,N/A,,Mostly Cloudy,0,2012-10-06 20:55:00
1:55 PM,39.7,33.6,79,30.13,10.0,Variable,5.8,-,N/A,,Mostly Cloudy,0,2012-10-06 21:55:00
2:40 PM,41.0,32.0,70,30.13,10.0,SSW,8.1,15.0,N/A,,Mostly Cloudy,200,2012-10-06 22:40:00
2:55 PM,40.3,32.5,74,30.13,10.0,Variable,2.3,-,N/A,,Mostly Cloudy,0,2012-10-06 22:55:00
3:00 PM,41.0,32.0,70,30.13,10.0,Variable,5.8,-,N/A,,Mostly Cloudy,0,2012-10-06 23:00:00
3:55 PM,40.5,32.0,72,30.12,10.0,South,9.2,12.7,N/A,,Mostly Cloudy,190,2012-10-06 23:55:00
4:40 PM,39.2,33.8,81,30.14,4.0,Variable,4.6,-,N/A,Rain,Rain,0,2012-10-07 00:40:00
4:55 PM,36.3,33.4,89,30.15,4.0,SW,8.1,-,0.05,Rain,Rain,230,2012-10-07 00:55:00
5:00 PM,35.6,33.8,93,30.15,2.5,Variable,3.5,-,N/A,Rain-Snow,Light Rain,0,2012-10-07 01:00:00
5:20 PM,35.6,33.8,93,30.16,4.0,Variable,2.3,-,N/A,Rain-Snow,Rain,0,2012-10-07 01:20:00
5:40 PM,37.4,33.8,87,30.15,10.0,Variable,6.9,-,N/A,Rain,Light Rain,0,2012-10-07 01:40:00
5:55 PM,37.2,33.6,87,30.15,10.0,Variable,2.3,-,0.06,,Mostly Cloudy,0,2012-10-07 01:55:00
6:20 PM,37.4,33.8,87,30.14,10.0,Variable,1.2,-,N/A,,Mostly Cloudy,0,2012-10-07 02:20:00
6:55 PM,37.2,33.8,87,30.15,10.0,East,2.3,-,N/A,Rain,Light Rain Showers,90,2012-10-07 02:55:00
7:55 PM,36.0,33.3,90,30.17,10.0,East,2.3,-,N/A,Rain,Light Rain Showers,80,2012-10-07 03:55:00
8:20 PM,35.6,33.8,93,30.17,10.0,Variable,1.2,-,N/A,,Mostly Cloudy,0,2012-10-07 04:20:00
8:55 PM,36.7,33.3,87,30.18,10.0,West,1.2,-,N/A,Rain,Light Rain Showers,260,2012-10-07 04:55:00
9:20 PM,37.4,33.8,87,30.19,10.0,Variable,2.3,-,N/A,,Mostly Cloudy,0,2012-10-07 05:20:00
9:55 PM,37.2,32.0,81,30.20,10.0,Variable,2.3,-,N/A,,Mostly Cloudy,0,2012-10-07 05:55:00
10:20 PM,37.4,32.0,81,30.20,10.0,SW,1.2,-,N/A,Rain,Light Rain,230,2012-10-07 06:20:00
10:40 PM,37.4,33.8,87,30.21,10.0,WNW,1.2,-,N/A,Rain,Light Rain,290,2012-10-07 06:40:00
10:55 PM,36.9,32.9,86,30.21,10.0,Variable,1.2,-,N/A,Rain,Light Rain,0,2012-10-07 06:55:00
11:00 PM,37.4,32.0,81,30.21,10.0,SSW,2.3,-,N/A,Rain,Light Rain Showers,210,2012-10-07 07:00:00
11:55 PM,37.2,32.4,83,30.22,10.0,Variable,1.2,-,N/A,Rain,Light Rain Showers,0,2012-10-07 07:55:00